Wind_Speed
3 4 7 10 13 15 20 23 23 22 22 23 26 29 22 18 21 19 18 18 18 20 22 20 18 18 18 20 21 23 23 23 25 23 13 9 9 9 9 6 7 9 10 10 10 8 8 8 9 8 7 10 12 13 16 16 16 14 12 11 9 8 6 6 6 6 6 5 5 6 7 8 9 9 10 11 12 12 12 13 13 13 14 14 13
2 0 2 4 7 9 12 17 22 24 26 26 27 31 30 25 23 22 21 21 22 22 22 21 19 17 16 18 19 21 23 24 24 18 9 8 8 8 10 7 5 9 10 10 11 10 9 7 6 6 8 12 13 15 18 17 15 14 12 11 9 7 6 6 6 7 8 8 6 4 2 2 3 4 5 6 7 7 6 7 8 9 11 13 14
2 1 1 2 3 6 8 11 14 19 24 28 30 31 32 30 25 23 23 24 26 24 21 20 19 18 18 18 18 20 22 23 20 13 8 9 9 7 10 9 7 9 11 9 10 13 12 9 7 7 9 12 16 19 19 16 14 14 13 11 9 6 5 4 5 7 7 7 6 4 3 2 2 2 2 2 3 4 4 5 8 10 13 15 16
3 2 1 0 2 4 7 10 13 15 19 24 29 32 32 30 26 25 25 26 28 25 19 15 15 16 17 17 16 18 19 16 13 9 9 10 9 8 10 12 11 12 13 8 7 12 13 10 11 13 15 16 19 19 17 15 14 14 13 10 7 6 5 4 4 5 5 5 5 5 4 2 2 3 3 2 2 3 5 8 11 13 16 16 16
6 5 4 3 2 3 3 5 8 12 16 20 25 28 29 29 27 26 26 26 25 20 13 9 9 11 13 14 15 16 13 9 8 8 9 10 10 11 13 15 15 15 15 10 5 10 14 14 16 19 18 17 19 17 15 14 12 15 13 7 5 5 5 4 4 4 3 3 5 5 4 3 2 3 4 4 4 6 9 12 14 16 16 16 15
8 8 8 7 7 8 9 9 6 3 2 8 13 18 21 24 25 26 26 24 18 12 7 6 6 7 9 9 9 9 7 7 7 7 8 11 14 14 15 17 15 14 14 12 9 11 16 17 18 18 16 17 19 16 14 12 12 14 8 3 3 4 5 6 6 5 3 2 4 3 2 4 3 4 5 7 8 10 12 13 14 15 14 13 14
9 10 11 11 11 12 14 15 16 15 14 10 6 2 4 8 11 15 16 15 10 5 2 2 3 4 4 4 5 6 7 9 10 9 9 12 15 15 16 16 15 13 13 12 12 13 15 16 16 15 16 18 18 15 14 12 11 8 2 3 2 3 5 7 6 6 5 3 3 1 2 5 4 4 7 9 11 11 12 13 14 14 14 15 16
9 11 13 13 12 13 14 16 17 18 18 18 16 14 12 9 7 4 3 2 2 3 4 4 3 1 1 3 5 8 10 11 12 11 11 13 15 15 15 15 16 15 14 13 14 15 15 15 15 15 18 18 16 16 14 11 9 3 4 3 2 4 4 6 6 6 5 4 4 2 2 3 4 7 10 11 11 11 12 12 13 15 16 17 19
10 12 13 13 12 13 14 15 15 16 16 16 16 15 14 13 12 10 9 7 6 6 6 4 2 1 3 7 8 8 10 13 14 13 12 12 12 13 13 13 14 14 15 15 16 15 16 16 16 16 17 17 15 16 14 9 8 5 5 4 2 4 3 3 5 5 5 5 3 2 3 4 7 11 13 12 11 11 11 12 13 15 17 19 22
11 13 13 13 13 14 15 15 14 14 15 15 15 14 13 12 11 10 8 7 5 5 5 3 1 3 4 7 8 8 8 10 12 10 9 10 11 11 9 10 11 12 14 15 15 14 14 15 17 17 16 16 14 15 16 9 6 9 8 4 1 3 3 3 5 6 5 4 4 4 6 7 12 15 14 13 12 11 11 12 14 16 19 22 23
12 14 13 12 12 14 15 15 15 14 15 15 15 14 13 12 11 9 8 7 5 2 2 1 1 5 5 6 7 8 8 7 8 7 6 9 11 10 7 7 8 10 10 10 12 11 12 13 16 17 15 15 12 13 15 9 5 8 8 5 3 5 6 6 6 5 4 4 6 6 8 11 16 15 13 12 11 11 11 13 15 18 21 22 18
12 14 13 11 12 13 13 13 14 13 13 13 13 12 12 11 10 8 6 4 4 4 4 2 3 5 6 5 6 8 7 6 8 8 7 9 12 11 10 10 10 10 10 12 13 13 14 17 18 18 17 15 11 10 12 9 8 9 9 7 7 9 11 9 7 2 2 5 7 8 10 14 13 11 10 9 10 11 12 13 16 18 19 16 11
13 13 13 11 11 11 11 11 10 9 9 8 9 9 10 9 8 7 6 5 5 5 6 4 4 6 7 7 8 8 6 7 10 12 12 12 13 13 12 13 13 14 15 17 17 16 17 18 19 18 17 13 11 11 10 10 11 10 8 6 7 9 11 11 7 3 4 7 9 11 13 12 10 8 8 8 9 11 13 14 16 16 14 10 7
14 13 13 11 10 9 9 8 8 8 8 7 6 7 8 8 9 9 6 6 6 5 5 5 5 6 6 6 7 6 6 10 12 14 14 13 12 12 13 14 15 16 17 18 18 18 18 19 18 18 15 12 11 11 11 11 9 8 6 6 7 6 7 8 7 6 8 10 12 13 11 9 9 9 8 8 11 13 15 16 15 11 8 6 6
14 14 13 12 10 9 8 7 7 8 8 7 7 7 7 8 10 9 6 5 5 5 5 5 5 6 7 3 4 7 10 12 14 14 13 12 11 11 12 13 15 16 17 18 19 19 19 18 17 15 13 11 11 13 13 11 9 8 8 8 8 7 7 8 10 11 11 11 12 11 9 8 8 9 9 12 15 17 15 13 9 6 5 6 6
14 13 13 11 10 8 7 6 7 7 7 6 5 5 5 7 8 8 6 6 5 5 5 5 6 7 7 5 7 11 13 14 15 14 13 12 12 12 12 14 15 16 17 18 19 18 17 16 15 13 11 11 12 14 15 13 11 9 8 9 9 8 9 11 11 12 11 10 10 8 6 5 7 11 14 17 17 15 11 7 5 5 6 6 7
14 13 11 10 8 6 6 6 6 5 4 4 3 4 5 7 7 7 7 8 8 6 6 6 7 8 8 10 12 13 14 15 14 13 12 12 12 13 13 15 16 16 17 17 17 15 15 15 14 13 11 11 11 12 12 11 9 6 6 6 6 7 10 11 11 10 8 7 7 6 8 10 12 15 17 16 12 8 5 4 5 6 7 8 9
15 13 11 10 8 7 7 6 5 4 3 3 3 4 5 7 8 9 9 10 10 8 5 5 7 9 10 13 14 14 13 13 12 10 10 11 12 13 14 14 15 15 16 16 15 15 16 15 14 13 12 11 11 9 7 5 3 2 2 3 4 5 7 9 10 9 7 7 9 11 14 15 14 14 12 8 6 5 5 6 7 7 8 9 9
15 14 13 13 12 11 9 7 5 4 4 3 3 4 6 7 9 10 9 10 11 10 7 6 6 7 10 12 13 12 10 10 11 10 11 12 13 14 14 14 14 15 16 16 17 16 16 14 12 10 8 8 7 4 0 4 5 4 2 1 1 3 6 8 10 9 9 11 12 13 13 11 9 8 7 6 6 6 7 8 8 9 10 10 9
14 14 14 14 12 10 9 7 6 5 5 5 5 6 7 7 8 8 9 10 10 10 9 8 7 6 7 9 9 10 10 11 12 13 13 13 14 14 14 14 15 15 17 17 17 16 13 8 5 2 2 2 3 5 7 7 7 5 4 4 5 6 6 7 7 6 6 8 8 8 7 8 8 8 7 7 7 8 9 9 10 10 10 10 11
12 12 12 12 10 8 9 9 9 8 7 8 8 9 9 8 8 9 10 10 10 9 9 9 7 6 5 5 6 8 9 10 11 12 12 12 12 13 13 14 15 16 16 15 13 10 5 3 4 6 7 8 10 9 7 6 6 6 6 4 3 2 3 5 5 6 7 7 8 9 10 10 9 9 8 8 9 10 10 10 10 10 11 12 13
11 10 9 8 9 9 11 12 12 10 10 10 11 11 11 10 10 11 11 10 9 9 9 9 8 7 6 5 5 7 7 8 8 9 9 10 11 11 12 13 13 12 11 10 7 5 6 8 9 11 12 11 11 10 9 8 6 5 4 4 6 7 8 9 10 11 13 13 13 12 12 11 10 9 9 10 10 10 10 10 11 12 13 13 14
11 10 9 8 10 11 13 14 13 13 13 13 13 13 12 12 13 12 12 11 11 11 11 10 10 9 9 8 8 8 8 8 8 9 9 10 10 11 11 11 10 8 7 7 8 9 11 12 12 13 13 13 12 12 12 11 10 9 10 11 12 13 13 15 15 16 15 15 14 13 12 11 10 10 10 10 10 10 10 11 12 13 14 14 16
12 11 10 11 11 12 14 14 15 16 16 16 15 15 14 14 15 15 14 13 13 13 12 12 12 12 12 11 11 10 10 10 10 10 10 10 11 11 11 10 9 9 11 12 13 14 15 15 15 14 14 15 15 15 14 15 14 15 16 16 17 17 17 17 17 17 16 15 14 13 11 10 10 11 11 10 10 11 11 12 12 13 15 16 16
13 13 12 13 13 14 14 14 16 17 17 17 16 16 16 16 16 16 15 15 14 14 14 13 13 14 14 13 13 13 13 13 12 12 11 11 12 12 12 13 14 15 16 17 16 17 17 17 17 16 17 18 18 17 17 18 18 19 19 19 19 18 18 18 17 17 15 14 14 12 11 11 12 12 11 11 11 11 11 12 12 14 15 16 16
13 13 13 14 15 16 15 15 16 17 16 16 17 16 17 17 16 16 16 16 15 15 15 15 14 14 14 14 14 14 15 15 15 14 14 13 13 13 13 16 18 19 20 19 18 18 19 20 19 19 20 20 21 21 21 22 21 21 20 19 19 18 18 18 17 16 15 15 14 13 12 12 12 12 12 11 11 11 11 12 12 13 14 14 15
14 14 15 15 16 16 16 16 17 17 16 16 17 17 17 17 16 16 16 16 16 16 16 15 16 15 15 15 15 15 17 17 16 15 16 16 15 15 16 17 20 21 21 21 21 21 22 23 23 22 23 23 23 23 23 23 22 21 20 19 19 19 18 17 17 17 16 15 14 13 13 13 12 12 11 11 11 11 12 12 12 13 13 13 14
16 16 16 16 17 17 17 17 17 17 17 17 18 18 18 17 17 17 16 16 16 16 16 16 16 16 16 16 15 16 17 18 18 16 16 16 15 14 16 18 19 20 21 22 23 23 23 24 24 24 24 24 24 24 23 23 22 21 20 19 19 19 19 18 17 16 16 16 15 14 13 12 12 11 11 11 11 11 11 11 11 11 11 12 13
17 17 17 17 18 18 18 18 19 19 18 19 19 19 18 18 18 17 17 17 17 16 17 17 17 17 17 17 16 16 17 19 19 17 16 17 15 13 15 17 19 19 21 23 23 23 24 25 25 24 24 23 24 24 23 22 21 21 20 20 20 20 19 18 17 17 17 16 15 15 14 13 12 11 11 11 11 10 10 10 11 11 11 11 13
16 17 17 17 18 19 19 20 20 20 20 21 21 20 20 20 19 19 18 18 17 17 17 17 17 17 17 18 18 17 18 20 19 18 17 17 16 16 16 18 19 19 20 22 23 24 24 24 24 23 22 22 23 23 22 22 22 21 21 21 20 19 18 17 18 18 17 16 15 15 15 15 14 12 12 11 11 11 11 10 10 11 11 11 13
16 16 16 17 18 19 20 20 21 21 22 23 23 23 23 22 21 20 20 19 19 18 17 17 18 18 18 18 18 19 19 19 19 19 18 17 17 18 17 18 19 20 21 22 24 24 24 23 23 22 21 21 22 22 21 21 21 21 21 20 19 18 18 18 19 19 19 17 16 15 17 18 17 16 15 14 13 13 13 13 13 13 13 13 13
15 15 16 17 18 19 19 20 21 21 23 24 24 25 25 25 24 23 22 21 20 19 18 18 18 18 18 18 19 19 18 18 19 19 19 19 17 18 18 18 19 20 21 22 23 22 22 22 21 21 21 20 21 22 21 21 20 20 19 19 19 19 19 20 20 20 19 18 17 16 17 20 21 20 18 18 18 18 18 18 17 17 16 16 15
14 14 14 15 16 17 18 19 20 21 22 22 24 24 25 26 26 25 24 23 22 21 20 19 18 18 18 18 18 18 18 18 18 19 19 20 18 18 19 19 20 20 21 21 21 21 20 21 21 21 21 20 20 21 21 20 20 19 18 17 18 19 21 22 21 20 19 18 17 17 18 20 22 21 20 21 21 21 21 20 19 19 18 18 17
14 14 14 14 14 15 16 17 18 19 20 21 23 24 24 24 26 26 25 24 23 22 21 21 19 18 18 18 18 18 18 18 18 19 19 19 19 19 20 21 21 21 21 21 22 21 20 20 20 20 20 19 19 20 21 21 20 19 18 17 18 18 19 21 21 20 19 19 18 18 19 21 22 21 21 21 21 20 20 20 20 20 19 18 18
15 14 14 14 14 14 15 16 18 19 20 20 21 23 23 23 25 26 26 25 24 23 23 22 21 20 18 18 18 18 18 18 18 18 19 19 20 21 21 21 21 20 21 22 23 23 21 20 20 20 20 20 19 19 19 20 20 20 19 18 18 18 18 19 20 20 20 20 21 20 21 22 22 22 22 21 20 19 20 21 21 22 20 18 17
16 15 14 14 14 14 15 16 17 18 19 20 20 21 22 23 24 26 26 25 24 24 24 23 22 22 20 19 19 18 18 18 18 18 19 19 20 20 21 21 20 20 21 22 23 24 23 21 21 21 20 20 19 18 18 19 20 20 20 19 18 18 17 17 19 21 20 21 22 22 22 21 22 23 22 22 22 22 22 21 21 22 21 19 18
18 17 16 15 15 15 15 15 16 18 19 19 20 21 21 22 24 26 26 26 25 25 25 25 24 23 22 21 20 19 18 19 19 19 19 19 20 20 21 21 21 20 21 21 22 24 24 22 21 20 19 19 18 18 18 18 19 20 19 18 17 17 16 16 18 20 21 20 20 22 23 21 21 22 22 22 23 22 22 21 21 23 22 20 18
19 19 18 16 16 16 16 16 16 17 18 19 21 21 21 22 23 25 26 26 26 26 26 26 25 23 23 22 21 20 19 19 19 19 19 19 20 20 20 21 22 22 21 21 21 22 23 23 20 19 18 17 16 17 17 16 17 18 19 19 18 18 17 15 17 20 21 20 19 21 24 22 20 21 22 22 22 23 21 20 22 24 24 21 19
20 20 19 18 17 17 16 16 17 17 17 18 20 22 22 22 23 25 26 27 27 27 27 27 26 25 24 23 22 21 19 19 18 18 18 18 19 19 19 19 21 23 22 21 20 20 21 21 20 19 17 16 16 16 16 16 16 17 17 18 18 18 18 16 17 20 20 21 21 21 23 24 22 22 22 22 22 23 23 21 23 25 24 22 20
20 20 20 19 18 18 17 17 17 17 17 17 19 21 22 22 23 24 25 27 27 28 28 27 27 27 26 25 23 22 21 20 19 18 18 18 18 18 18 18 20 21 21 20 19 19 18 18 19 19 18 17 16 17 18 18 18 17 16 17 18 18 18 17 17 19 19 21 22 21 22 25 25 24 22 22 23 25 24 23 24 24 23 22 20
19 19 20 20 19 18 18 17 17 17 17 17 18 20 22 22 23 24 25 27 27 28 29 28 28 28 27 26 25 24 22 21 20 19 18 18 18 19 18 18 18 19 19 18 18 18 17 16 16 17 17 17 17 19 21 21 19 18 17 17 17 18 18 17 18 20 19 20 22 21 21 24 25 24 24 24 25 26 26 25 25 24 23 22 21
18 19 19 20 19 19 18 18 17 16 16 17 18 21 22 23 23 24 25 26 27 28 29 29 29 28 28 27 27 26 24 23 22 20 19 18 18 18 18 17 17 17 16 16 17 17 16 16 15 15 16 16 16 17 18 19 19 18 17 16 16 17 18 19 20 22 22 22 23 22 22 24 25 25 26 27 27 27 27 27 26 25 24 23 23
17 18 18 19 19 19 19 18 18 17 17 18 19 21 21 22 23 24 25 26 26 27 28 29 29 28 28 28 27 27 26 24 23 22 21 19 18 17 17 16 17 16 15 15 15 15 15 15 14 14 14 14 13 12 13 14 15 16 16 15 15 16 16 18 21 22 23 24 24 22 22 23 24 26 29 30 30 29 29 29 28 28 27 26 25
16 17 18 18 18 18 18 19 18 18 18 19 20 21 21 22 23 24 24 25 26 27 27 28 28 28 28 28 28 27 26 25 24 24 23 21 20 19 17 16 16 16 15 14 14 14 14 14 13 13 13 14 13 13 13 13 14 14 15 15 15 15 15 16 20 21 21 24 25 24 23 23 25 28 29 31 32 31 30 31 31 31 30 29 28
15 16 16 17 17 17 17 18 18 18 18 19 19 21 21 21 22 23 24 25 26 27 27 27 27 27 27 28 28 27 27 26 25 24 24 22 21 19 18 17 17 16 15 15 14 14 14 15 15 14 13 12 13 14 14 14 14 13 13 14 16 16 16 16 19 20 19 22 25 25 25 24 26 29 29 30 32 32 33 33 33 33 32 32 31
13 15 15 16 15 16 16 16 17 17 17 18 19 20 21 21 21 22 23 24 24 26 27 26 26 26 25 26 27 27 26 26 25 25 25 24 22 20 20 19 18 17 17 16 15 14 15 15 16 16 14 13 12 12 14 15 14 13 13 15 16 16 16 17 20 21 20 21 23 24 26 26 28 31 30 30 31 33 35 35 36 36 35 35 35
10 13 14 15 14 14 14 15 15 15 16 17 18 18 19 20 20 21 22 23 24 25 26 26 26 26 25 26 27 26 26 26 25 25 25 24 24 23 22 21 20 19 18 18 17 16 15 15 15 16 16 16 15 14 15 16 17 17 17 17 19 19 19 19 22 24 24 23 22 24 26 28 31 32 32 32 33 35 37 38 40 40 40 41 40
7 10 12 13 14 13 13 13 13 13 14 15 15 16 17 18 20 20 21 21 23 24 25 26 26 26 26 26 26 26 26 26 25 25 24 24 24 23 23 22 22 21 20 19 18 17 16 16 16 16 17 18 18 17 16 17 17 18 18 18 19 21 21 21 22 24 25 24 23 25 28 30 32 33 34 35 37 39 41 43 45 46 47 48 49
6 7 10 11 13 13 12 12 11 11 12 12 12 13 14 16 18 19 19 20 21 22 23 25 26 27 26 26 25 25 25 25 25 25 24 23 23 23 22 22 22 21 21 20 20 18 17 17 17 17 18 19 20 19 18 18 17 17 18 18 19 19 21 22 23 22 23 25 25 28 31 32 33 35 36 37 39 42 45 47 49 51 53 54 56
5 5 7 9 11 12 12 11 10 10 10 11 10 10 12 13 15 16 17 18 19 20 20 22 25 27 26 26 25 25 24 24 24 24 24 24 23 23 22 22 22 22 21 21 20 19 18 17 16 16 17 19 21 20 20 18 17 16 18 19 19 19 20 23 25 24 24 26 28 30 32 33 34 36 38 40 42 44 47 49 51 53 54 56 58
4 3 6 8 9 10 10 10 9 8 9 9 9 8 9 11 13 14 15 16 17 18 19 20 22 24 25 26 25 25 24 24 24 24 24 24 24 24 23 23 22 21 21 21 20 20 19 18 17 16 16 18 19 19 18 17 16 18 19 18 17 17 18 21 24 25 26 28 30 30 31 32 35 37 39 41 43 45 47 49 51 52 54 55 56
Wind_Direction
171 216 226 228 236 238 238 239 235 233 234 231 224 222 232 247 250 258 266 270 277 280 279 277 270 270 280 282 279 274 281 296 305 314 319 327 344 350 344 346 9 3 348 328 308 302 318 327 331 334 334 335 335 335 334 334 337 335 337 337 336 336 335 349 358 4 358 341 310 286 271 263 266 274 277 276 279 282 284 285 283 277 273 276 281
79 170 240 239 249 258 256 253 248 245 245 244 238 235 243 253 253 258 267 269 273 278 273 272 272 270 277 282 283 281 284 292 299 306 308 323 332 343 343 330 343 348 343 330 307 293 303 315 324 332 324 326 328 330 331 329 328 324 327 330 330 334 338 355 5 14 13 9 14 10 346 288 285 296 297 288 286 290 288 289 287 282 285 290 294
61 47 251 267 276 279 275 268 259 255 251 249 248 248 252 258 255 254 260 264 273 285 283 278 276 272 272 277 282 284 287 289 292 293 293 315 319 327 339 325 307 319 326 323 307 296 300 307 309 316 319 325 327 330 332 327 325 320 319 320 321 328 331 346 351 359 0 358 7 14 5 340 325 333 333 312 291 297 288 284 292 295 298 299 297
66 74 89 348 296 292 285 273 264 257 252 248 248 251 256 260 260 259 260 263 273 286 293 287 281 277 271 271 280 289 289 284 276 268 287 310 317 318 322 313 301 307 308 306 303 297 299 297 300 312 316 322 326 331 334 328 326 322 316 308 313 324 324 332 336 344 353 353 353 0 1 358 9 358 358 344 289 287 291 292 296 297 297 296 295
51 54 60 55 37 358 335 298 270 257 249 245 245 248 252 256 258 260 261 264 272 280 289 296 299 290 275 274 282 289 286 275 260 261 292 311 313 307 306 302 298 300 296 294 286 278 280 278 294 310 316 322 326 330 333 330 329 322 309 291 300 318 322 328 322 329 354 342 340 5 1 342 1 349 344 335 305 298 299 300 299 297 296 294 293
46 50 59 68 71 65 62 62 59 57 237 239 242 245 249 252 253 255 258 262 270 280 288 297 296 279 270 271 273 277 284 297 295 282 295 310 307 297 298 301 297 295 292 291 278 262 266 277 299 311 318 327 327 325 325 327 332 321 299 248 292 312 314 315 310 316 332 324 331 23 348 308 328 321 319 316 307 302 299 298 298 299 297 293 296
47 55 67 75 77 70 69 69 68 68 69 74 82 127 217 235 243 249 254 258 265 276 267 243 245 248 256 250 256 278 299 311 310 297 296 302 299 293 295 298 294 293 294 292 287 278 276 285 303 310 317 326 328 324 318 322 332 320 229 177 279 311 311 300 298 305 313 314 307 295 267 298 321 319 318 315 307 300 294 294 296 296 295 298 304
61 68 75 79 78 73 72 70 68 66 67 68 70 75 81 91 102 124 165 192 186 168 154 153 160 129 342 301 288 296 304 306 301 296 295 295 294 292 289 287 289 295 296 292 292 293 288 289 299 305 310 320 328 326 313 312 327 296 190 199 267 316 307 288 286 289 300 301 282 270 279 296 321 322 320 316 306 298 295 295 295 292 293 300 305
79 82 83 83 81 76 74 71 69 68 69 69 70 73 77 82 86 90 95 103 120 136 136 130 120 64 335 311 308 302 303 299 289 290 294 288 280 283 282 288 296 299 299 297 297 296 294 295 298 298 302 312 322 324 310 299 315 287 245 244 294 313 275 268 267 267 286 281 264 252 226 251 313 321 316 314 307 301 298 297 296 296 299 304 306
90 93 90 87 83 78 75 73 73 73 72 71 71 72 74 75 77 77 77 80 99 131 139 127 31 341 313 296 299 294 295 293 281 276 273 261 260 276 294 308 305 295 297 301 299 296 299 299 295 291 295 310 317 318 306 285 304 299 275 258 350 329 273 261 261 271 284 267 275 262 226 260 309 314 310 309 307 304 300 297 296 300 305 307 307
94 100 97 92 87 80 76 73 73 73 71 70 69 68 67 66 62 57 59 63 69 104 170 220 331 341 317 282 287 293 291 288 281 271 250 252 265 277 286 291 291 292 297 294 287 280 281 284 288 292 298 309 312 312 303 274 280 308 295 286 310 314 299 269 261 285 296 286 287 262 251 288 305 304 304 306 307 307 300 295 293 298 305 308 307
93 104 105 99 91 82 77 75 71 70 67 64 65 64 59 54 47 41 35 34 32 22 6 326 316 328 315 287 293 303 298 293 303 304 287 278 279 278 270 263 265 276 280 277 280 274 272 279 289 296 299 302 298 299 299 272 276 304 300 293 287 294 294 270 255 270 266 266 269 267 288 305 306 302 305 306 307 304 298 296 297 304 309 309 306
91 107 114 108 95 85 78 73 66 62 58 55 57 56 48 40 32 17 5 6 8 14 15 354 322 314 305 291 289 299 311 322 324 319 304 291 286 286 281 273 270 271 274 280 286 287 285 289 292 292 291 292 291 293 297 284 286 297 295 293 291 290 283 265 245 219 226 246 268 288 303 312 312 310 311 306 305 304 305 309 311 313 311 307 306
91 104 115 113 104 92 82 71 58 53 50 49 46 39 31 23 11 5 14 27 16 0 351 329 321 330 325 295 278 300 322 330 331 327 315 300 293 292 287 282 283 286 287 288 290 294 296 296 294 291 285 283 288 292 294 293 293 297 298 301 303 292 265 252 247 265 277 274 284 294 300 309 309 305 301 303 308 314 318 319 318 314 308 309 317
92 102 111 113 109 100 90 77 67 64 59 55 47 34 31 26 16 14 26 27 2 348 335 312 315 343 356 322 285 318 322 324 328 327 322 309 300 296 291 289 291 293 292 293 294 296 298 298 297 294 287 279 282 284 283 286 294 301 298 295 298 289 266 266 277 290 296 293 295 297 296 299 299 297 305 314 320 323 323 320 316 313 316 323 325
88 98 104 107 104 97 87 73 65 67 61 53 38 26 25 19 15 18 15 5 350 331 326 315 320 340 347 321 304 312 316 321 322 320 318 309 302 299 296 293 292 293 293 296 298 299 301 300 298 297 292 282 281 278 273 276 290 296 287 287 294 287 280 284 293 304 308 310 310 302 297 302 308 312 316 318 322 326 325 320 321 326 331 329 326
83 88 92 93 90 80 70 64 58 58 55 44 12 351 353 357 1 0 347 347 351 340 330 332 332 330 323 312 309 312 314 317 314 312 311 303 300 301 300 297 298 299 300 303 303 303 305 304 298 295 289 283 285 277 269 274 286 287 277 282 289 288 292 296 304 313 319 320 312 309 317 319 317 316 316 318 325 331 335 338 340 338 332 328 326
82 84 85 82 73 61 56 58 59 51 47 38 7 349 350 354 351 344 332 333 348 352 345 339 328 324 321 312 310 313 312 311 312 313 308 304 305 306 305 305 306 307 310 312 310 308 309 307 298 292 286 278 280 277 274 286 303 325 316 311 303 296 294 293 299 300 300 310 312 314 319 320 319 320 326 337 349 356 356 350 343 337 333 331 330
85 86 84 76 65 58 53 48 49 45 37 30 10 354 347 344 338 339 337 338 351 2 3 359 346 339 329 317 315 318 315 311 318 321 316 314 314 312 313 313 312 315 318 316 313 310 309 306 296 287 277 265 263 265 58 78 80 74 64 64 249 251 259 279 295 287 282 302 310 312 320 331 344 355 11 23 17 7 357 349 342 340 339 337 334
87 88 83 74 63 53 46 39 36 39 34 31 26 13 359 350 347 353 359 359 2 6 9 7 7 3 338 327 324 321 318 317 320 324 323 322 321 322 323 324 323 322 319 315 312 310 310 311 306 286 216 182 131 113 113 117 123 137 166 191 220 243 267 293 317 316 308 319 328 342 6 27 35 39 35 26 15 6 357 351 349 347 344 340 337
83 84 81 72 64 53 45 42 37 31 31 33 31 26 21 20 18 17 14 9 8 7 7 7 11 13 352 339 328 320 320 322 326 330 330 329 332 334 334 333 329 324 320 318 317 319 339 41 76 92 101 100 98 101 111 129 148 166 187 208 232 292 347 356 11 30 38 43 48 52 56 53 46 39 29 22 14 7 1 357 353 349 345 343 343
79 80 76 61 58 58 48 42 36 30 33 34 32 30 31 30 28 26 20 14 16 15 12 13 18 20 12 358 345 339 340 342 346 348 348 347 347 346 343 338 333 330 329 334 348 29 70 84 90 92 91 90 92 94 97 102 109 120 112 81 65 57 56 61 66 69 69 67 64 60 55 48 42 35 27 23 17 11 5 358 354 350 349 349 350
72 72 66 52 54 57 47 38 34 34 36 36 36 35 34 34 35 35 30 27 31 31 29 29 30 31 30 25 19 15 14 15 16 11 7 5 3 2 357 352 351 356 11 32 56 75 84 87 86 85 87 88 88 89 91 91 88 82 76 72 73 75 76 77 77 74 70 66 61 57 52 47 42 36 31 26 20 12 4 359 357 355 355 356 356
64 59 57 54 52 50 42 36 36 38 39 40 41 41 41 41 41 41 38 38 40 41 41 40 39 37 35 34 32 30 29 29 26 23 20 21 22 18 17 25 39 52 61 67 75 82 86 87 86 84 85 86 86 87 87 87 84 81 80 82 83 83 81 78 75 72 69 66 63 58 53 49 44 39 34 26 18 11 7 4 2 2 3 3 3
63 59 56 52 46 44 42 40 40 40 41 43 45 45 45 43 42 42 41 41 41 42 43 41 40 37 37 36 36 35 36 35 34 32 30 32 31 31 42 56 64 70 73 76 80 83 85 86 86 85 81 81 82 84 86 86 85 86 87 87 86 83 80 77 75 74 71 68 64 59 54 50 46 41 33 27 20 17 14 12 11 11 11 11 10
67 65 58 51 47 46 46 44 44 43 43 44 46 46 46 45 43 42 41 41 39 39 40 39 39 38 38 38 37 40 40 41 42 42 43 41 39 46 62 70 74 76 77 80 82 84 86 85 84 81 79 80 83 86 88 88 89 90 89 86 84 82 81 80 78 76 72 69 64 60 55 51 48 43 39 33 29 27 24 22 19 17 17 18 18
69 69 61 55 55 54 52 50 48 47 46 46 47 47 46 46 45 42 41 42 40 39 39 39 40 39 39 40 40 42 44 46 47 49 50 47 51 62 68 74 79 79 80 83 84 84 85 83 81 81 81 84 87 88 89 90 90 88 87 85 85 84 83 81 79 78 75 71 66 61 57 54 52 49 46 42 40 37 33 29 24 21 21 22 22
68 68 64 62 62 61 59 57 55 52 49 49 49 47 46 46 45 42 41 42 42 41 42 42 43 43 43 44 43 44 48 51 50 51 52 49 57 65 66 76 83 80 79 82 84 86 85 81 79 81 84 87 89 89 89 89 89 88 88 88 87 85 83 81 82 82 79 75 69 64 59 56 53 52 52 52 52 48 42 36 31 28 26 26 25
70 71 69 68 67 65 63 62 60 57 54 53 51 49 48 47 46 44 41 42 43 43 44 45 46 47 48 48 48 50 54 55 53 54 55 53 57 62 67 79 85 82 79 79 82 85 85 81 80 81 85 88 89 90 91 90 89 90 90 90 87 85 82 81 81 80 78 75 70 64 59 56 55 55 57 59 58 55 50 45 40 36 31 29 26
71 72 72 71 70 68 65 63 61 59 57 55 53 51 50 49 48 46 44 44 44 45 46 47 49 50 52 52 54 58 60 58 56 59 60 57 59 64 70 79 85 86 83 82 83 83 83 81 80 83 85 88 89 90 92 92 92 92 91 90 87 82 80 78 76 75 73 71 69 63 55 51 53 57 57 55 53 49 47 44 41 36 32 30 28
67 70 70 70 70 68 66 64 62 60 58 56 54 52 51 50 49 48 47 47 46 47 47 48 51 52 54 55 58 62 62 59 59 62 63 63 65 67 71 80 87 90 86 84 85 83 82 81 82 85 87 89 91 91 92 94 94 93 92 90 85 79 75 74 71 69 67 65 65 59 51 46 47 49 48 45 40 35 31 29 27 26 25 25 28
61 64 66 67 68 67 65 64 62 60 58 57 55 53 53 52 50 50 50 49 49 48 48 49 50 54 57 58 60 64 63 62 62 64 64 65 68 70 72 79 85 88 85 83 84 83 83 82 84 88 88 88 89 91 92 93 94 94 93 89 82 73 69 68 66 67 66 64 61 56 49 43 41 40 40 38 34 30 25 22 20 19 19 20 25
55 59 61 64 65 65 64 63 61 60 59 58 56 55 56 54 51 50 51 51 50 50 49 49 50 55 58 59 62 65 66 66 67 68 67 67 69 73 75 79 83 85 84 82 82 85 85 84 85 87 88 87 87 90 92 92 92 91 91 88 79 71 67 65 63 66 68 65 60 56 50 43 39 37 37 37 34 31 29 27 24 22 21 20 24
49 53 55 59 61 62 62 61 60 59 58 57 56 56 58 55 51 50 52 52 52 52 51 50 51 54 59 60 62 66 68 69 70 72 72 70 72 76 79 81 83 84 84 81 81 84 88 88 88 88 89 88 87 88 90 91 88 85 85 84 78 71 68 65 63 66 67 63 57 54 49 42 37 36 37 37 35 33 32 32 31 28 25 24 26
47 49 51 53 55 57 58 59 58 57 56 55 55 55 57 55 51 51 54 55 55 54 53 51 52 55 59 61 61 66 68 70 73 75 74 73 74 79 82 82 83 85 85 83 81 83 86 87 86 86 87 87 86 85 87 87 85 83 84 84 79 75 72 67 60 60 60 55 50 47 44 41 38 37 37 37 34 32 31 30 30 29 27 26 27
48 48 49 50 52 55 57 57 57 57 55 54 53 53 55 53 51 51 53 56 56 56 55 53 52 54 58 60 60 64 67 70 75 75 74 74 74 78 81 80 82 84 83 82 80 79 79 82 83 83 82 82 82 80 81 84 84 84 85 85 79 74 72 66 56 52 49 44 44 44 42 40 38 36 35 34 32 32 31 28 26 26 27 28 28
49 49 48 50 50 53 55 56 57 57 57 55 53 52 54 53 50 50 53 55 56 56 56 54 53 53 55 58 59 61 65 70 73 74 74 74 75 77 80 79 80 82 81 78 78 75 74 77 80 80 78 77 77 75 76 81 85 83 83 81 73 68 66 61 54 48 43 41 41 41 40 38 37 34 32 31 30 30 29 28 25 23 26 29 29
48 49 49 49 49 52 54 55 56 58 59 57 53 52 52 51 49 49 51 54 55 55 55 55 54 54 54 56 58 59 63 68 71 72 75 76 77 79 82 81 80 81 81 78 77 75 73 74 77 77 76 74 74 73 72 78 83 81 78 75 69 62 59 57 53 46 42 41 39 36 36 38 38 35 34 33 30 27 26 26 24 23 26 30 31
48 49 50 50 50 52 53 54 56 57 58 56 51 50 50 50 49 49 50 52 54 55 55 55 55 54 53 55 58 59 60 64 68 69 73 76 77 78 80 81 81 80 80 79 77 77 75 74 74 74 75 74 73 71 72 78 81 78 74 71 65 58 55 56 53 48 44 40 38 35 35 36 38 38 38 36 30 27 28 27 26 26 29 32 34
48 49 50 51 51 52 53 54 54 54 55 54 49 47 49 50 49 49 50 52 54 55 55 55 55 55 54 54 56 58 59 61 65 67 69 72 74 76 77 78 78 76 75 75 77 80 80 77 72 70 72 72 72 73 77 79 77 75 74 68 62 57 54 53 49 46 42 38 36 34 32 32 35 37 38 34 28 28 31 30 28 29 31 34 36
49 51 51 52 51 52 53 53 54 53 54 52 48 48 50 50 49 50 52 53 55 56 56 56 57 57 55 55 55 57 58 59 61 65 67 69 71 74 76 77 77 75 74 74 77 80 82 81 76 71 70 72 76 79 80 78 74 72 72 68 61 57 53 49 44 41 38 35 32 31 30 29 31 36 37 33 30 30 31 31 31 32 34 36 38
51 53 53 54 54 53 52 52 54 55 54 52 50 50 51 52 51 52 53 54 56 58 59 58 58 59 58 56 55 56 57 58 59 60 62 65 68 71 74 78 78 76 74 74 77 80 81 80 79 77 74 75 78 78 77 76 73 66 65 64 59 56 54 49 43 39 37 33 30 31 31 30 32 37 37 33 32 31 31 33 34 36 38 40 43
54 56 57 57 57 56 54 53 54 54 54 53 52 53 53 53 54 54 55 56 58 60 61 60 60 61 60 58 57 56 57 57 57 58 59 63 67 69 71 75 77 76 73 74 76 79 81 82 81 79 75 72 74 74 73 73 70 63 59 57 54 52 50 46 41 39 39 36 34 34 33 33 37 40 38 36 35 34 36 38 40 41 43 45 47
58 60 61 62 61 60 58 56 56 55 55 56 55 54 54 55 55 56 58 58 58 59 61 62 62 62 62 61 59 59 58 58 58 59 61 65 67 68 68 70 72 73 72 73 76 76 77 77 76 75 74 73 71 68 68 69 69 67 58 55 53 48 45 44 41 42 43 40 38 39 39 40 41 41 39 38 38 40 42 43 45 45 47 49 52
62 65 66 67 66 64 62 60 59 57 57 57 57 56 55 55 56 57 58 58 56 58 60 62 63 64 64 63 62 61 61 60 59 60 62 64 66 66 65 66 67 68 70 70 72 74 73 71 68 67 71 75 72 67 68 70 71 69 60 58 57 50 47 47 46 46 46 43 43 43 43 43 40 39 39 39 40 44 47 49 50 51 51 54 56
65 69 71 72 73 70 66 63 62 60 58 57 57 57 56 56 56 56 58 58 57 57 59 61 63 64 64 64 63 63 62 61 62 62 62 62 62 63 63 63 64 64 66 68 68 70 70 69 68 67 67 68 67 65 66 68 69 69 65 63 62 56 52 50 48 49 49 47 46 44 43 43 40 40 43 45 46 50 53 54 56 57 58 59 61
70 71 76 78 78 76 71 66 63 61 59 56 55 55 56 56 55 55 56 57 59 59 60 60 62 63 64 64 64 63 62 63 63 64 64 62 61 62 62 62 62 62 64 67 68 69 69 68 70 72 71 68 67 67 69 71 71 72 71 69 66 63 60 54 48 48 49 47 45 45 47 45 45 48 52 55 57 59 61 62 64 65 65 67 68
75 75 79 82 83 81 77 70 64 62 59 53 51 52 53 54 54 55 55 55 57 60 60 60 60 61 62 64 64 63 62 61 63 64 64 64 63 62 63 63 62 62 63 65 67 70 71 70 72 75 77 77 76 75 75 75 73 73 73 72 67 65 62 56 49 46 46 48 50 52 54 52 53 57 60 62 65 67 69 71 71 72 72 73 74
82 85 82 84 86 85 82 76 67 64 63 54 47 48 49 50 52 54 55 55 55 57 59 60 60 60 61 63 63 63 62 61 62 63 64 65 64 63 63 64 64 63 64 65 67 68 70 72 74 76 80 83 84 84 83 80 77 77 76 71 65 62 57 49 47 49 52 55 58 60 60 60 61 65 67 69 72 74 75 76 77 77 78 78 78
72 96 94 88 89 89 85 81 72 63 63 59 52 48 44 43 46 48 50 53 54 54 57 59 59 60 60 61 62 62 62 62 61 61 62 64 65 64 63 62 63 62 62 62 64 64 67 72 75 78 83 86 88 88 88 86 82 81 78 70 62 57 48 40 44 54 59 62 65 64 64 66 68 72 75 77 78 79 79 80 80 81 81 81 81
54 84 111 102 93 92 89 83 77 65 60 62 61 55 47 42 41 41 43 47 50 52 54 57 59 60 60 61 61 61 61 61 60 59 60 61 63 64 63 62 62 61 59 58 59 59 60 64 68 76 84 86 85 84 86 86 80 76 77 74 66 56 45 41 47 56 62 66 67 66 68 72 75 79 81 82 82 82 82 82 83 83 83 83 83
Height
10966 10967 10967 10968 10969 10969 10969 10969 10969 10970 10970 10970 10970 10971 10973 10975 10974 10973 10974 10975 10976 10977 10978 10978 10978 10978 10978 10977 10977 10976 10976 10976 10976 10976 10975 10975 10974 10973 10972 10971 10971 10971 10971 10971 10970 10970 10969 10969 10969 10968 10968 10967 10967 10966 10965 10964 10963 10962 10960 10959 10958 10957 10956 10956 10955 10954 10954 10954 10953 10953 10953 10953 10953 10952 10952 10951 10951 10950 10950 10950 10950 10950 10950 10950 10950
10967 10967 10968 10968 10969 10969 10969 10968 10968 10969 10969 10969 10969 10970 10971 10973 10973 10973 10974 10975 10976 10977 10978 10978 10978 10978 10977 10977 10976 10976 10976 10976 10976 10976 10975 10974 10974 10972 10972 10971 10971 10971 10971 10971 10970 10969 10969 10969 10969 10968 10968 10967 10966 10965 10964 10963 10962 10961 10961 10959 10958 10957 10956 10956 10955 10955 10954 10954 10954 10953 10953 10953 10952 10952 10951 10951 10950 10950 10950 10950 10949 10949 10949 10949 10948
10968 10969 10969 10969 10970 10969 10968 10968 10968 10967 10967 10967 10968 10968 10970 10971 10972 10973 10974 10975 10976 10976 10977 10978 10977 10977 10976 10976 10976 10975 10975 10975 10975 10975 10975 10974 10973 10972 10971 10971 10971 10971 10971 10970 10970 10969 10969 10969 10968 10968 10967 10967 10966 10965 10964 10962 10961 10961 10960 10959 10958 10957 10956 10956 10955 10955 10955 10954 10954 10953 10953 10952 10952 10952 10951 10951 10951 10950 10950 10950 10949 10948 10948 10947 10946
10970 10970 10971 10971 10971 10970 10969 10967 10967 10966 10966 10965 10966 10967 10968 10969 10971 10972 10974 10975 10975 10975 10976 10977 10976 10975 10975 10975 10975 10975 10974 10974 10974 10974 10974 10973 10972 10972 10971 10971 10971 10970 10970 10969 10969 10968 10968 10967 10967 10967 10966 10966 10965 10964 10963 10961 10960 10960 10959 10959 10958 10957 10956 10955 10955 10955 10955 10954 10954 10953 10953 10952 10952 10952 10951 10951 10951 10950 10950 10949 10948 10948 10947 10946 10945
10971 10971 10972 10972 10972 10971 10969 10968 10966 10965 10964 10964 10964 10965 10967 10968 10970 10971 10973 10974 10975 10975 10976 10975 10974 10974 10974 10975 10975 10975 10974 10973 10973 10973 10972 10972 10971 10971 10971 10971 10971 10970 10969 10968 10968 10968 10967 10966 10966 10965 10965 10965 10964 10963 10962 10961 10959 10959 10958 10958 10957 10956 10956 10955 10955 10954 10954 10954 10954 10953 10953 10953 10952 10952 10952 10951 10951 10950 10950 10949 10948 10946 10945 10944 10943
10971 10971 10972 10972 10972 10971 10970 10968 10966 10965 10964 10963 10964 10965 10967 10968 10969 10971 10972 10973 10974 10975 10975 10974 10974 10974 10974 10975 10975 10975 10974 10973 10972 10972 10972 10971 10971 10971 10971 10970 10970 10969 10969 10968 10967 10967 10965 10965 10965 10964 10964 10964 10963 10962 10961 10960 10959 10957 10957 10957 10956 10956 10955 10954 10954 10953 10953 10953 10953 10953 10953 10952 10952 10952 10952 10951 10951 10950 10949 10948 10946 10945 10944 10943 10942
10972 10972 10972 10972 10972 10971 10970 10969 10967 10966 10965 10965 10965 10966 10967 10968 10969 10970 10972 10973 10974 10974 10973 10973 10974 10974 10975 10975 10974 10974 10974 10973 10972 10971 10971 10971 10971 10970 10970 10969 10969 10968 10967 10966 10966 10965 10965 10964 10964 10963 10962 10962 10961 10960 10960 10959 10958 10957 10956 10956 10956 10955 10954 10953 10953 10952 10952 10952 10952 10952 10952 10952 10952 10952 10951 10951 10950 10949 10948 10947 10945 10944 10943 10942 10940
10973 10973 10973 10973 10972 10972 10971 10970 10969 10968 10968 10967 10967 10968 10968 10969 10970 10971 10971 10972 10973 10973 10973 10974 10974 10975 10975 10975 10974 10973 10973 10972 10972 10971 10971 10971 10970 10970 10969 10968 10967 10967 10966 10965 10964 10964 10963 10963 10962 10961 10961 10960 10960 10959 10958 10958 10957 10956 10956 10956 10955 10955 10954 10953 10953 10952 10952 10952 10952 10952 10952 10952 10952 10951 10951 10950 10949 10948 10946 10945 10944 10943 10941 10940 10939
10975 10975 10975 10975 10974 10973 10972 10972 10971 10970 10970 10970 10970 10970 10970 10970 10971 10972 10972 10973 10973 10974 10974 10974 10975 10975 10975 10974 10973 10973 10972 10972 10972 10971 10971 10970 10970 10969 10968 10967 10966 10965 10965 10964 10963 10962 10962 10961 10960 10960 10960 10959 10958 10957 10957 10957 10956 10956 10955 10955 10955 10954 10953 10953 10953 10952 10952 10952 10952 10952 10952 10952 10951 10950 10950 10949 10947 10946 10945 10944 10943 10942 10940 10939 10937
10976 10976 10976 10976 10976 10975 10974 10973 10973 10973 10972 10972 10972 10971 10971 10971 10972 10972 10973 10974 10974 10974 10974 10974 10974 10975 10975 10974 10973 10973 10972 10972 10971 10971 10970 10969 10969 10968 10967 10966 10965 10964 10964 10963 10962 10961 10960 10959 10958 10958 10958 10958 10957 10956 10955 10955 10955 10955 10954 10954 10955 10954 10953 10953 10953 10952 10952 10952 10952 10952 10952 10951 10950 10950 10948 10947 10946 10945 10944 10943 10942 10940 10939 10937 10936
10978 10978 10978 10978 10977 10976 10976 10975 10975 10974 10974 10973 10973 10973 10973 10973 10973 10974 10974 10974 10975 10975 10975 10974 10974 10974 10974 10973 10972 10972 10972 10971 10971 10970 10969 10968 10968 10967 10966 10965 10964 10963 10962 10962 10960 10959 10959 10958 10957 10957 10956 10956 10956 10955 10954 10954 10954 10954 10954 10953 10954 10953 10952 10952 10952 10952 10952 10952 10952 10952 10952 10951 10950 10948 10947 10946 10945 10944 10943 10942 10941 10939 10938 10936 10935
10979 10979 10979 10979 10979 10978 10978 10977 10977 10976 10976 10975 10975 10975 10975 10975 10975 10975 10975 10975 10975 10975 10975 10974 10974 10974 10973 10972 10971 10972 10971 10971 10970 10969 10968 10967 10966 10965 10965 10964 10963 10962 10961 10960 10959 10958 10957 10956 10955 10954 10954 10954 10954 10954 10954 10953 10953 10953 10953 10952 10952 10952 10952 10951 10952 10951 10952 10952 10952 10952 10951 10950 10949 10947 10946 10945 10944 10943 10942 10941 10940 10939 10937 10936 10935
10980 10981 10981 10980 10980 10980 10979 10979 10979 10978 10977 10977 10976 10976 10976 10976 10976 10975 10975 10975 10975 10975 10975 10974 10974 10974 10973 10971 10970 10970 10970 10970 10969 10968 10967 10966 10964 10964 10963 10962 10961 10960 10959 10958 10957 10956 10955 10954 10953 10952 10952 10952 10952 10952 10952 10952 10952 10952 10952 10951 10951 10951 10951 10951 10951 10951 10951 10951 10951 10950 10950 10948 10947 10946 10945 10944 10943 10943 10942 10941 10940 10938 10937 10936 10935
10982 10982 10982 10982 10982 10982 10981 10981 10981 10980 10979 10978 10978 10978 10977 10977 10976 10976 10975 10975 10976 10976 10975 10974 10973 10973 10972 10970 10969 10969 10969 10968 10967 10966 10965 10964 10963 10962 10961 10960 10959 10958 10957 10956 10954 10953 10953 10952 10951 10950 10950 10950 10951 10951 10951 10951 10951 10951 10951 10950 10950 10950 10950 10950 10950 10950 10950 10950 10950 10949 10948 10947 10946 10945 10945 10944 10943 10942 10941 10940 10939 10938 10937 10937 10936
10983 10984 10984 10984 10983 10983 10983 10983 10982 10982 10981 10980 10980 10979 10979 10978 10978 10977 10977 10976 10977 10976 10975 10973 10972 10972 10972 10970 10969 10968 10968 10967 10966 10965 10964 10963 10962 10960 10959 10959 10958 10956 10955 10954 10952 10951 10951 10950 10949 10948 10948 10949 10949 10949 10949 10949 10949 10950 10949 10949 10949 10949 10949 10949 10949 10949 10949 10949 10948 10948 10947 10946 10945 10945 10944 10943 10943 10942 10941 10940 10939 10939 10938 10937 10936
10985 10985 10985 10985 10984 10984 10984 10984 10983 10983 10982 10982 10981 10980 10980 10979 10979 10978 10978 10977 10977 10976 10974 10973 10971 10971 10971 10970 10969 10968 10967 10966 10964 10964 10963 10962 10960 10959 10958 10957 10956 10955 10954 10952 10951 10950 10949 10948 10947 10947 10947 10947 10948 10948 10948 10948 10948 10948 10948 10948 10948 10948 10948 10948 10948 10948 10948 10948 10947 10947 10946 10946 10945 10944 10944 10943 10942 10942 10941 10940 10940 10939 10938 10937 10936
10986 10986 10986 10986 10985 10985 10985 10985 10985 10984 10984 10983 10982 10981 10981 10980 10979 10978 10978 10977 10976 10975 10974 10973 10971 10970 10970 10969 10968 10968 10966 10965 10964 10963 10962 10961 10960 10959 10958 10956 10955 10954 10952 10951 10949 10948 10947 10946 10946 10946 10946 10947 10947 10947 10947 10947 10947 10947 10947 10947 10947 10947 10948 10948 10948 10948 10947 10947 10947 10947 10946 10945 10945 10944 10944 10943 10942 10942 10941 10941 10940 10939 10938 10937 10936
10987 10987 10987 10987 10987 10987 10987 10987 10986 10985 10984 10984 10983 10982 10981 10980 10980 10979 10978 10977 10976 10975 10974 10973 10971 10969 10968 10967 10967 10966 10966 10965 10964 10963 10962 10960 10960 10958 10957 10956 10954 10952 10950 10949 10947 10947 10946 10945 10945 10945 10945 10946 10946 10946 10946 10946 10946 10946 10947 10947 10947 10947 10947 10947 10947 10947 10947 10947 10947 10946 10946 10945 10944 10944 10943 10943 10942 10942 10942 10941 10940 10939 10938 10937 10936
10989 10989 10989 10989 10990 10989 10989 10988 10987 10986 10985 10984 10983 10983 10982 10981 10980 10979 10978 10977 10975 10974 10974 10973 10971 10969 10967 10966 10965 10965 10965 10964 10963 10962 10960 10959 10958 10957 10955 10953 10951 10950 10948 10947 10946 10946 10945 10944 10944 10944 10944 10945 10945 10946 10946 10946 10946 10946 10947 10947 10947 10947 10947 10947 10947 10947 10947 10947 10946 10946 10945 10945 10944 10944 10944 10943 10943 10943 10942 10941 10940 10940 10939 10937 10936
10990 10991 10991 10991 10991 10991 10990 10989 10988 10987 10986 10985 10984 10984 10983 10982 10981 10979 10978 10977 10975 10974 10974 10973 10972 10971 10969 10967 10965 10964 10964 10963 10961 10960 10958 10957 10956 10954 10953 10951 10949 10948 10947 10947 10946 10945 10944 10944 10943 10944 10944 10944 10945 10945 10946 10947 10947 10947 10947 10947 10947 10947 10947 10947 10947 10947 10947 10947 10946 10946 10946 10945 10945 10945 10944 10944 10943 10943 10942 10941 10941 10940 10938 10937 10936
10992 10993 10993 10993 10993 10992 10991 10990 10989 10988 10987 10986 10985 10984 10983 10982 10981 10980 10978 10977 10975 10974 10974 10973 10973 10972 10971 10968 10966 10965 10964 10963 10961 10960 10958 10957 10955 10954 10952 10951 10950 10949 10948 10947 10946 10945 10944 10944 10944 10944 10945 10945 10945 10946 10946 10947 10947 10947 10947 10947 10947 10947 10947 10947 10947 10947 10947 10947 10947 10947 10946 10946 10946 10946 10945 10944 10944 10943 10942 10941 10940 10939 10938 10937 10936
10994 10994 10994 10994 10993 10993 10992 10991 10990 10988 10987 10986 10985 10984 10983 10982 10981 10980 10979 10977 10976 10975 10974 10973 10973 10972 10971 10970 10968 10967 10965 10964 10962 10961 10960 10958 10957 10955 10954 10953 10951 10950 10949 10948 10946 10946 10945 10945 10945 10945 10945 10946 10946 10946 10947 10947 10947 10947 10947 10947 10947 10947 10947 10947 10947 10948 10948 10948 10948 10948 10947 10947 10947 10946 10946 10945 10944 10943 10942 10941 10940 10939 10938 10937 10936
10995 10995 10995 10994 10994 10993 10992 10991 10991 10989 10988 10986 10985 10984 10984 10982 10981 10980 10979 10978 10977 10976 10974 10974 10973 10972 10971 10970 10969 10967 10966 10964 10963 10962 10961 10960 10958 10957 10956 10954 10953 10951 10950 10948 10948 10947 10947 10947 10947 10947 10947 10947 10947 10947 10947 10947 10947 10948 10948 10948 10948 10948 10948 10948 10949 10949 10949 10949 10949 10949 10948 10948 10947 10947 10946 10945 10944 10943 10942 10941 10940 10939 10938 10937 10935
10997 10996 10996 10995 10995 10994 10993 10992 10991 10990 10988 10987 10986 10985 10984 10983 10982 10981 10980 10979 10978 10977 10976 10975 10973 10972 10971 10970 10969 10967 10966 10965 10963 10962 10961 10960 10959 10958 10956 10955 10953 10952 10950 10949 10949 10948 10948 10948 10949 10949 10948 10948 10948 10948 10948 10948 10948 10948 10949 10949 10949 10950 10950 10950 10950 10950 10950 10950 10949 10949 10949 10948 10947 10947 10946 10945 10945 10944 10943 10941 10940 10939 10938 10936 10935
10998 10998 10997 10996 10996 10995 10994 10993 10992 10990 10989 10988 10987 10986 10985 10984 10983 10982 10981 10981 10980 10979 10977 10976 10975 10973 10972 10971 10969 10968 10966 10965 10964 10963 10962 10961 10960 10959 10957 10955 10953 10952 10951 10951 10950 10950 10950 10950 10950 10950 10949 10949 10949 10949 10949 10949 10949 10949 10950 10950 10951 10951 10951 10951 10951 10951 10951 10950 10950 10950 10949 10949 10948 10947 10947 10946 10945 10944 10943 10941 10940 10938 10937 10936 10934
11000 11000 10999 10998 10997 10996 10995 10994 10993 10992 10990 10989 10989 10988 10987 10986 10985 10984 10983 10982 10981 10980 10979 10978 10976 10975 10973 10972 10970 10969 10967 10966 10965 10963 10962 10961 10960 10959 10957 10956 10955 10954 10953 10952 10952 10952 10951 10951 10951 10950 10950 10950 10950 10950 10950 10950 10951 10951 10952 10952 10953 10953 10952 10952 10952 10952 10952 10951 10951 10951 10950 10949 10949 10948 10947 10946 10945 10944 10942 10941 10939 10938 10936 10935 10934
11002 11001 11000 10999 10999 10998 10997 10996 10994 10993 10992 10991 10990 10990 10989 10988 10987 10986 10985 10984 10983 10982 10980 10979 10977 10976 10975 10973 10971 10970 10968 10967 10966 10964 10963 10962 10961 10960 10958 10957 10956 10956 10955 10954 10954 10953 10953 10953 10952 10952 10952 10952 10952 10952 10952 10952 10952 10953 10954 10954 10954 10954 10954 10954 10953 10953 10952 10952 10952 10952 10951 10950 10949 10948 10947 10946 10945 10943 10942 10940 10939 10937 10936 10935 10934
11004 11003 11002 11001 11001 11000 10999 10998 10996 10995 10994 10993 10992 10991 10990 10989 10988 10987 10986 10985 10984 10983 10981 10980 10979 10977 10976 10974 10973 10971 10970 10969 10967 10965 10964 10963 10962 10961 10960 10959 10958 10958 10957 10956 10955 10955 10955 10955 10954 10954 10954 10954 10954 10953 10954 10954 10955 10955 10956 10956 10956 10956 10955 10955 10954 10954 10954 10953 10953 10953 10952 10951 10950 10948 10947 10945 10944 10942 10941 10939 10938 10937 10935 10934 10933
11006 11005 11004 11004 11003 11002 11001 11000 10998 10997 10996 10994 10993 10992 10992 10991 10990 10989 10988 10986 10985 10984 10983 10981 10980 10979 10977 10975 10974 10972 10971 10970 10968 10967 10966 10965 10964 10963 10962 10961 10960 10959 10959 10958 10958 10957 10957 10957 10956 10956 10956 10956 10956 10956 10956 10956 10957 10958 10958 10958 10958 10957 10957 10956 10956 10955 10955 10954 10954 10954 10952 10951 10950 10948 10946 10945 10943 10942 10940 10939 10937 10936 10935 10934 10933
11008 11008 11007 11006 11005 11004 11003 11001 11000 10999 10998 10996 10995 10994 10993 10992 10991 10990 10989 10988 10986 10985 10984 10982 10981 10980 10978 10977 10975 10974 10973 10971 10970 10968 10967 10967 10965 10965 10964 10963 10962 10962 10961 10961 10960 10960 10959 10958 10958 10958 10958 10958 10958 10958 10958 10959 10960 10960 10960 10960 10959 10959 10959 10958 10958 10957 10956 10956 10955 10955 10954 10952 10950 10948 10947 10945 10944 10942 10940 10939 10937 10936 10935 10934 10932
11011 11009 11008 11007 11006 11005 11004 11004 11003 11002 11000 10998 10997 10996 10995 10994 10992 10991 10990 10989 10988 10986 10985 10983 10982 10981 10979 10978 10976 10975 10974 10972 10971 10970 10969 10968 10967 10967 10966 10965 10965 10964 10963 10963 10962 10962 10961 10961 10960 10960 10961 10961 10960 10960 10960 10961 10961 10962 10962 10962 10961 10961 10961 10960 10959 10958 10958 10957 10957 10956 10955 10953 10952 10950 10948 10947 10945 10944 10942 10940 10939 10937 10936 10934 10932
11012 11011 11010 11008 11007 11007 11006 11006 11005 11003 11002 11000 10999 10998 10996 10995 10994 10993 10992 10990 10989 10987 10986 10984 10983 10982 10980 10979 10977 10976 10975 10974 10973 10972 10971 10970 10969 10968 10967 10967 10966 10966 10965 10965 10964 10964 10964 10963 10963 10963 10963 10963 10962 10962 10963 10963 10963 10964 10964 10964 10963 10963 10963 10962 10961 10960 10959 10959 10958 10957 10956 10955 10953 10951 10950 10948 10947 10946 10944 10942 10940 10939 10937 10935 10933
11013 11013 11011 11010 11009 11009 11008 11007 11007 11006 11004 11003 11002 11000 10998 10997 10996 10994 10993 10992 10990 10989 10987 10986 10985 10983 10982 10981 10979 10978 10977 10976 10975 10974 10973 10972 10970 10970 10969 10968 10968 10968 10967 10967 10967 10967 10966 10966 10966 10965 10965 10965 10965 10965 10965 10965 10965 10966 10966 10966 10966 10966 10965 10964 10963 10962 10961 10960 10959 10958 10957 10956 10954 10953 10951 10950 10948 10947 10945 10943 10941 10939 10938 10936 10934
11015 11014 11013 11013 11012 11011 11010 11009 11008 11007 11006 11005 11003 11002 11001 11000 10998 10996 10995 10994 10992 10991 10989 10988 10986 10985 10984 10982 10981 10980 10979 10978 10977 10976 10975 10974 10973 10972 10971 10970 10970 10970 10970 10970 10969 10969 10969 10968 10968 10968 10967 10967 10968 10968 10967 10967 10967 10967 10968 10968 10968 10968 10967 10966 10964 10963 10962 10961 10960 10959 10958 10956 10955 10954 10952 10951 10949 10947 10945 10943 10941 10940 10938 10936 10935
11017 11016 11015 11014 11014 11013 11012 11011 11010 11009 11007 11006 11005 11004 11003 11002 11000 10999 10997 10996 10994 10993 10991 10990 10989 10987 10986 10984 10983 10982 10981 10979 10978 10978 10977 10976 10975 10974 10973 10973 10972 10972 10972 10972 10971 10971 10970 10970 10970 10970 10970 10969 10970 10970 10970 10969 10969 10969 10970 10970 10970 10969 10968 10967 10966 10965 10964 10963 10961 10960 10959 10957 10956 10955 10954 10952 10950 10948 10946 10944 10942 10940 10938 10936 10935
11019 11018 11018 11017 11016 11015 11014 11013 11012 11010 11009 11008 11006 11005 11005 11003 11002 11001 10999 10997 10996 10995 10994 10992 10991 10989 10988 10987 10985 10984 10983 10981 10980 10979 10979 10978 10977 10976 10976 10975 10975 10974 10974 10974 10973 10973 10973 10973 10973 10973 10972 10972 10972 10973 10972 10972 10971 10971 10971 10971 10971 10970 10970 10969 10968 10966 10965 10964 10963 10962 10960 10959 10958 10956 10955 10953 10951 10949 10947 10945 10943 10941 10939 10937 10935
11021 11021 11020 11020 11019 11018 11017 11016 11014 11013 11011 11010 11009 11007 11006 11005 11004 11003 11001 11000 10998 10997 10996 10994 10993 10991 10990 10989 10988 10986 10985 10984 10983 10982 10981 10980 10979 10979 10978 10977 10977 10977 10976 10976 10976 10976 10976 10976 10976 10975 10975 10975 10975 10975 10975 10974 10974 10973 10972 10972 10973 10972 10971 10971 10970 10968 10967 10966 10964 10963 10962 10960 10959 10957 10955 10953 10952 10950 10948 10946 10944 10942 10939 10937 10936
11022 11022 11022 11021 11020 11019 11019 11018 11017 11015 11014 11013 11011 11010 11008 11007 11006 11005 11003 11002 11000 10999 10998 10996 10995 10993 10992 10991 10990 10988 10987 10986 10985 10984 10983 10983 10982 10981 10980 10980 10979 10979 10978 10978 10978 10979 10979 10978 10978 10978 10978 10977 10977 10976 10977 10976 10976 10976 10975 10974 10974 10974 10973 10973 10971 10970 10968 10967 10966 10965 10963 10961 10960 10958 10956 10955 10953 10951 10949 10947 10945 10943 10940 10938 10937
11024 11023 11023 11022 11021 11021 11020 11019 11018 11018 11017 11015 11013 11012 11011 11009 11008 11007 11005 11004 11003 11001 10999 10998 10997 10995 10994 10993 10992 10990 10989 10988 10987 10986 10986 10985 10984 10983 10982 10982 10981 10980 10980 10980 10980 10981 10981 10981 10980 10980 10979 10979 10978 10978 10978 10978 10978 10978 10977 10976 10976 10976 10975 10975 10973 10972 10970 10969 10968 10967 10965 10963 10961 10959 10957 10956 10954 10952 10950 10948 10946 10943 10941 10939 10937
11025 11024 11024 11023 11022 11022 11021 11021 11020 11019 11019 11017 11016 11014 11013 11012 11010 11009 11008 11006 11005 11003 11001 11000 10998 10997 10996 10995 10994 10992 10991 10990 10989 10988 10987 10987 10986 10985 10984 10983 10983 10982 10982 10982 10982 10983 10983 10983 10982 10982 10981 10980 10980 10980 10979 10980 10980 10980 10979 10978 10978 10978 10977 10976 10975 10973 10972 10971 10970 10968 10967 10965 10963 10961 10959 10957 10955 10953 10951 10949 10946 10944 10942 10940 10938
11026 11026 11025 11024 11024 11023 11022 11022 11022 11021 11020 11019 11018 11016 11015 11014 11013 11012 11010 11009 11007 11005 11004 11002 11001 10999 10999 10997 10996 10995 10993 10992 10991 10990 10989 10988 10987 10986 10986 10985 10985 10984 10984 10984 10984 10984 10985 10985 10984 10983 10983 10982 10982 10982 10981 10981 10982 10981 10981 10980 10980 10979 10979 10978 10977 10975 10974 10973 10971 10970 10968 10967 10965 10962 10960 10958 10956 10954 10952 10949 10946 10944 10942 10940 10939
11028 11027 11027 11026 11025 11024 11024 11023 11023 11023 11022 11021 11020 11018 11017 11016 11015 11014 11013 11012 11010 11008 11007 11005 11004 11002 11001 11000 10998 10997 10995 10994 10993 10992 10991 10990 10989 10988 10988 10987 10987 10986 10986 10986 10986 10986 10986 10986 10986 10985 10985 10984 10984 10984 10984 10984 10984 10983 10982 10982 10982 10981 10981 10980 10979 10977 10976 10974 10973 10971 10970 10969 10967 10964 10962 10960 10958 10955 10953 10950 10947 10945 10943 10941 10940
11030 11029 11029 11028 11027 11026 11026 11025 11025 11024 11023 11022 11021 11020 11019 11018 11017 11017 11016 11015 11013 11012 11010 11009 11007 11005 11004 11003 11001 10999 10998 10996 10995 10994 10993 10992 10991 10991 10990 10990 10989 10988 10988 10988 10988 10988 10988 10988 10987 10987 10986 10986 10985 10985 10986 10986 10986 10985 10984 10984 10983 10983 10983 10982 10981 10979 10978 10976 10975 10973 10972 10971 10969 10967 10964 10962 10960 10957 10954 10951 10949 10947 10945 10942 10941
11031 11031 11030 11030 11029 11028 11028 11027 11026 11026 11025 11024 11023 11022 11021 11020 11019 11018 11018 11017 11016 11015 11013 11012 11010 11009 11008 11006 11004 11002 11001 11000 10998 10997 10996 10995 10994 10993 10993 10992 10991 10990 10990 10990 10990 10990 10990 10989 10989 10988 10988 10987 10987 10987 10987 10988 10987 10987 10986 10986 10985 10985 10984 10983 10982 10981 10979 10977 10977 10976 10974 10973 10971 10968 10966 10964 10962 10959 10956 10953 10951 10949 10946 10944 10942
11032 11032 11032 11031 11031 11030 11029 11029 11028 11027 11026 11026 11025 11024 11023 11022 11021 11020 11020 11019 11018 11017 11016 11015 11013 11012 11011 11010 11008 11006 11005 11003 11002 11000 10999 10998 10997 10996 10995 10994 10993 10992 10992 10992 10992 10991 10991 10991 10990 10990 10989 10989 10988 10988 10988 10989 10989 10988 10988 10988 10987 10986 10985 10984 10983 10982 10980 10979 10978 10978 10977 10975 10972 10970 10968 10966 10964 10961 10958 10955 10953 10951 10949 10946 10945
11034 11033 11033 11033 11032 11032 11031 11030 11030 11029 11028 11027 11026 11026 11025 11024 11023 11022 11022 11021 11020 11020 11018 11017 11016 11015 11014 11013 11011 11010 11008 11007 11005 11003 11002 11000 10999 10998 10997 10996 10995 10994 10994 10993 10993 10992 10992 10992 10991 10991 10991 10990 10990 10990 10990 10990 10990 10990 10990 10990 10989 10988 10986 10985 10984 10983 10981 10980 10979 10979 10978 10976 10974 10972 10970 10969 10967 10964 10961 10958 10955 10953 10951 10949 10947
11035 11034 11034 11034 11034 11033 11032 11032 11031 11031 11030 11029 11028 11028 11027 11026 11025 11024 11024 11023 11023 11022 11021 11020 11019 11017 11017 11015 11014 11013 11011 11009 11008 11006 11005 11003 11001 11000 10999 10998 10997 10996 10995 10994 10994 10993 10993 10993 10993 10992 10992 10992 10992 10992 10991 10991 10991 10991 10991 10991 10990 10989 10988 10987 10986 10984 10983 10982 10981 10981 10979 10978 10976 10975 10973 10971 10969 10967 10964 10961 10958 10956 10954 10952 10951
11036 11035 11035 11035 11035 11034 11034 11033 11033 11032 11031 11031 11030 11030 11029 11028 11027 11026 11026 11025 11024 11023 11023 11022 11021 11020 11018 11017 11016 11015 11014 11012 11011 11009 11007 11006 11004 11003 11001 11000 10999 10998 10997 10996 10995 10995 10995 10995 10994 10994 10994 10994 10994 10993 10993 10993 10993 10993 10993 10992 10991 10991 10990 10990 10988 10986 10986 10986 10985 10983 10981 10980 10979 10978 10976 10974 10972 10970 10967 10965 10962 10960 10958 10957 10956
11037 11036 11036 11036 11036 11035 11035 11034 11034 11033 11033 11032 11032 11031 11030 11030 11029 11028 11027 11027 11026 11025 11025 11024 11023 11022 11020 11019 11019 11017 11016 11015 11014 11012 11010 11009 11007 11006 11004 11003 11002 11001 11000 10999 10998 10997 10997 10997 10996 10996 10996 10996 10996 10996 10995 10995 10995 10994 10994 10993 10992 10992 10992 10990 10989 10988 10988 10988 10988 10986 10984 10981 10981 10981 10980 10978 10976 10974 10972 10969 10966 10964 10963 10962 10961
11037 11037 11037 11037 11037 11036 11036 11035 11035 11035 11034 11034 11033 11032 11032 11031 11030 11030 11029 11028 11027 11027 11027 11026 11025 11024 11023 11022 11021 11020 11019 11018 11017 11015 11013 11012 11010 11009 11008 11006 11005 11004 11003 11002 11001 11000 10999 10999 10999 10998 10998 10998 10998 10998 10997 10997 10996 10996 10995 10995 10994 10993 10993 10992 10991 10990 10990 10989 10989 10989 10987 10984 10984 10984 10984 10982 10980 10978 10975 10973 10972 10970 10968 10967 10967
11038 11038 11038 11038 11038 11037 11037 11036 11036 11036 11035 11035 11034 11034 11033 11033 11032 11031 11030 11030 11029 11029 11028 11028 11027 11027 11026 11025 11024 11023 11022 11021 11020 11018 11017 11015 11014 11012 11011 11009 11008 11007 11006 11005 11004 11003 11002 11002 11001 11001 11001 11001 11000 11000 10999 10999 10998 10997 10997 10996 10996 10995 10995 10994 10993 10992 10992 10991 10990 10990 10990 10988 10988 10987 10987 10986 10984 10982 10980 10978 10976 10975 10974 10973 10972